EW9430 Weather Reports


Display with metric or nautical units.
time (UTC)temp
F
wind
direction
speed
MPH
gust
MPH
rain 1hr
in
rain 24hr
in
rain mn
in
humidity
%
barometer
mb
20260503180037 79 352 1.0 5.0 0.00 0.03 0.00 46 1004.7
20260503175017 78 337 1.0 5.0 0.00 0.03 0.00 46 1004.8
20260503174016 78 344 1.0 4.0 0.00 0.03 0.00 47 1004.9
20260503173016 77 351 1.0 5.0 0.00 0.03 0.00 49 1005.1
20260503172015 76 1 1.0 4.0 0.00 0.03 0.00 51 1005.1
20260503171016 75 356 1.0 4.0 0.00 0.03 0.00 53 1005.1
20260503131016 52 0.0 0.0 0.00 0.03 0.00 96 1005.4
20260503081016 57 0.0 0.0 0.00 0.03 0.00 89 1006.2
20260503072016 58 0.0 0.0 0.00 0.03 0.00 87 1006.3
20260503071016 58 0.0 0.0 0.00 0.03 0.00 87 1006.4
20260503055016 59 0.0 0.0 0.00 0.03 0.03 85 1006.4
20260503054016 59 0.0 0.0 0.00 0.03 0.03 84 1006.4
20260503053016 59 270 0.0 1.0 0.00 0.03 0.03 84 1006.4
20260503052016 60 0.0 0.0 0.00 0.03 0.03 83 1006.4
20260503051016 60 0.0 0.0 0.00 0.03 0.03 82 1006.3
20260503050016 60 0.0 0.0 0.00 0.03 0.03 82 1006.2
20260503045036 60 0.0 0.0 0.00 0.03 0.03 81 1006.4
20260503044016 60 0.0 0.0 0.00 0.03 0.03 81 1006.1
20260503043016 60 0.0 0.0 0.00 0.03 0.03 81 1006.1
20260503042036 61 0.0 0.0 0.00 0.03 0.03 81 1006.1
20260503041016 61 0.0 0.0 0.00 0.03 0.03 79 1006.1
20260503040036 61 0.0 0.0 0.00 0.03 0.03 78 1006.1
20260503035017 62 0.0 0.0 0.00 0.03 0.03 77 1006.1
20260503034016 62 0.0 0.0 0.00 0.03 0.03 76 1005.9
20260503033016 63 0.0 0.0 0.00 0.03 0.03 76 1005.7
20260503032017 63 0.0 0.0 0.00 0.03 0.03 75 1005.7
20260503031016 63 0.0 0.0 0.00 0.03 0.03 75 1005.5
20260503030015 63 0.0 0.0 0.00 0.03 0.03 75 1005.4
20260503025016 63 0.0 0.0 0.00 0.03 0.03 74 1005.6
20260503024015 64 0.0 0.0 0.00 0.03 0.03 74 1005.7
20260503023016 64 0.0 3.0 0.00 0.03 0.03 74 1005.9
20260503022036 64 232 2.0 7.0 0.00 0.03 0.03 73 1006.3
20260503021037 64 225 2.0 5.0 0.00 0.03 0.03 73 1006.4
20260503020036 65 227 3.0 6.0 0.00 0.03 0.03 74 1006.4
20260503015015 65 227 2.0 4.0 0.00 0.03 0.03 73 1005.9
20260503014036 66 225 2.0 3.0 0.00 0.03 0.03 72 1005.4
20260503013016 66 225 2.0 3.0 0.00 0.03 0.03 70 1005.4
20260503012015 67 225 2.0 3.0 0.00 0.03 0.03 67 1005.4
20260503011018 68 0.0 0.0 0.00 0.03 0.03 66 1005.4
20260503010015 68 0.0 0.0 0.00 0.03 0.03 65 1005.4
20260503005018 68 360 0.0 2.0 0.00 0.03 0.03 64 1005.3
20260503004015 68 360 0.0 1.0 0.00 0.03 0.03 64 1005.1
20260503003015 68 335 0.0 2.0 0.00 0.03 0.03 64 1005.1
20260503002036 68 238 1.0 2.0 0.00 0.03 0.03 63 1005.1
20260503001058 68 22 0.0 2.0 0.00 0.03 0.03 63 1005.1
20260503000016 68 337 0.0 2.0 0.00 0.03 0.03 63 1005.2
20260502235018 68 292 1.0 3.0 0.00 0.03 0.03 62 1005.4
20260502234036 68 358 0.0 3.0 0.00 0.03 0.03 63 1005.5
20260502233016 68 0.0 0.0 0.00 0.03 0.03 63 1005.7
20260502232016 68 337 0.0 1.0 0.00 0.03 0.03 63 1005.7
20260502231016 68 360 0.0 3.0 0.00 0.03 0.03 62 1005.9
20260502230015 69 233 0.0 3.0 0.00 0.03 0.03 59 1006.1
20260502225016 70 360 1.0 3.0 0.00 0.03 0.03 58 1006.1
20260502224015 70 47 0.0 3.0 0.00 0.03 0.03 60 1006.4
20260502223015 69 22 1.0 4.0 0.00 0.03 0.03 60 1006.4
20260502222015 70 95 0.0 4.0 0.00 0.03 0.03 59 1006.6
20260502221015 69 342 0.0 2.0 0.00 0.03 0.03 60 1006.8
20260502220016 69 33 1.0 3.0 0.00 0.03 0.03 60 1006.8
20260502215016 68 359 1.0 5.0 0.00 0.03 0.03 61 1007.1
20260502214015 66 3 1.0 3.0 0.00 0.03 0.03 66 1007.4
20260502213035 65 39 0.0 2.0 0.00 0.03 0.03 66 1007.4
20260502212016 65 227 0.0 3.0 0.00 0.03 0.03 66 1007.5
20260502211016 65 73 1.0 4.0 0.00 0.03 0.03 66 1007.7
20260502210035 65 21 2.0 6.0 0.00 0.03 0.03 65 1007.8
20260502205016 65 337 1.0 4.0 0.00 0.03 0.03 67 1008.0
20260502204016 64 351 1.0 3.0 0.00 0.03 0.03 69 1008.1
20260502203016 63 36 1.0 2.0 0.00 0.03 0.03 71 1008.4
20260502202016 62 278 1.0 2.0 0.00 0.03 0.03 74 1008.5
20260502201016 61 342 1.0 5.0 0.00 0.03 0.03 76 1008.7
20260502200016 59 360 1.0 3.0 0.00 0.03 0.03 78 1008.9
20260502195017 58 3 1.0 4.0 0.01 0.03 0.03 80 1008.8
20260502194017 58 221 0.0 4.0 0.01 0.03 0.03 82 1009.0
20260502193016 57 260 1.0 5.0 0.01 0.03 0.03 84 1009.1
20260502192016 55 22 0.0 2.0 0.02 0.03 0.03 85 1009.2
20260502191016 55 10 1.0 4.0 0.03 0.03 0.03 87 1009.4
20260502190016 54 45 0.0 1.0 0.03 0.03 0.03 86 1009.6
20260502185036 54 29 0.0 3.0 0.02 0.02 0.02 86 1009.6
20260502184015 54 213 1.0 3.0 0.02 0.02 0.02 85 1009.6
20260502183015 54 32 0.0 1.0 0.02 0.02 0.02 83 1009.5
20260502182015 54 0.0 0.0 0.01 0.01 0.01 81 1009.5
20260502181015 54 80 0.0 2.0 0.00 0.00 0.00 81 1009.5